SCP
0 0 0 0 0 0 0 0 0 1 1 1 1 1 1 1 1 1 1 1 1 1 1 1 1 1 1 1 1 1 1 1 1 1 1 1 1 1 1 1 1 1 1
0 0 0 0 0 0 0 0 0 1 1 1 1 1 1 1 1 1 1 1 1 1 1 1 1 1 1 1 1 1 1 1 1 1 1 1 1 1 1 1 1 1 1
0 0 0 0 0 0 0 0 0 0 1 0 1 1 1 1 1 2 2 1 1 1 1 1 1 1 1 1 1 1 1 1 1 1 1 1 1 1 1 1 1 1 1
0 0 0 0 0 0 0 0 0 0 0 0 0 1 1 1 1 1 1 1 1 1 1 1 1 2 1 1 1 1 1 1 1 1 1 1 1 1 1 1 1 1 1
0 0 0 0 0 0 0 0 0 0 0 0 0 1 1 1 1 1 1 1 1 1 1 1 2 2 2 2 2 1 1 1 1 1 1 1 1 2 2 1 1 1 1
0 0 0 0 0 0 0 0 0 0 0 0 0 0 1 1 1 1 1 1 1 1 1 2 3 3 3 2 2 1 1 1 1 1 1 1 2 2 2 1 1 1 1
0 0 0 0 0 0 0 0 0 0 0 0 0 0 0 1 1 1 0 1 1 1 2 3 5 5 4 3 2 2 1 1 1 1 1 1 2 2 2 1 1 1 1
0 0 0 0 0 0 0 0 0 0 0 0 0 0 0 1 1 0 0 0 1 1 1 3 5 5 4 3 2 2 2 1 1 1 1 1 2 2 2 1 1 1 1
0 0 0 0 0 0 0 0 0 0 0 0 0 0 0 0 0 1 0 0 0 1 1 2 4 4 3 2 2 2 1 1 1 1 1 1 2 2 1 1 1 1 1
0 0 0 0 0 0 0 0 0 0 0 0 0 0 0 0 0 1 1 0 0 1 1 2 3 3 3 2 2 1 1 1 1 1 0 1 1 2 1 1 1 1 1
0 0 0 0 0 0 0 0 0 0 0 0 0 0 0 0 0 1 1 1 0 1 1 1 2 2 2 1 1 1 1 1 1 0 0 1 2 2 1 1 1 1 1
0 0 0 0 0 0 0 0 0 0 0 0 0 0 0 0 0 0 1 1 1 1 1 1 1 1 1 1 0 0 0 0 0 0 0 1 1 1 1 1 1 1 1
0 0 0 0 0 0 0 0 0 0 0 0 0 0 0 0 0 0 0 1 0 0 0 0 0 0 0 0 0 0 0 0 0 0 0 1 1 1 1 1 1 1 1
1 0 0 0 0 0 0 0 0 0 0 0 0 0 0 0 0 0 0 0 0 0 0 0 0 0 0 0 0 0 0 0 0 0 0 0 1 1 1 1 1 1 1
1 1 1 1 1 0 0 0 0 0 0 0 0 0 0 0 0 0 0 0 0 0 0 0 0 0 0 0 0 0 0 0 0 0 0 0 1 1 1 1 1 1 1
2 2 2 1 1 0 0 0 0 0 0 0 0 0 0 0 0 0 0 0 0 0 0 0 0 0 0 0 0 0 0 0 0 0 0 0 0 1 1 1 1 1 1
3 3 2 2 1 1 1 1 0 0 0 0 0 0 0 0 0 0 0 0 0 0 0 0 0 0 0 0 0 0 0 0 0 0 0 0 0 0 0 0 0 0 0
3 3 2 2 2 1 1 1 1 1 0 0 0 0 0 0 0 0 0 0 0 0 0 0 0 0 0 0 0 0 0 0 0 0 0 0 0 0 0 0 0 0 0
3 3 2 2 2 2 1 1 1 1 0 0 0 0 0 0 0 0 0 0 0 0 0 0 0 0 0 0 0 0 0 0 0 0 0 0 0 0 0 0 0 0 0
3 2 2 2 1 1 1 0 0 0 0 0 0 0 0 0 0 0 0 0 0 0 0 0 0 0 0 0 0 0 0 0 0 0 0 0 0 0 0 0 0 0 0
2 2 2 1 1 0 0 0 0 0 0 0 0 0 0 0 0 0 0 0 0 0 0 0 0 0 0 0 0 0 0 0 0 0 0 0 0 0 0 0 0 0 0
1 1 1 1 0 0 0 0 0 0 0 0 0 0 0 0 0 0 0 0 0 0 0 0 0 0 0 0 0 0 0 0 0 0 0 0 0 0 0 0 0 0 0
1 1 1 0 0 0 0 0 0 0 0 0 0 0 0 0 0 0 0 0 0 0 0 0 0 0 0 0 0 0 0 0 0 0 0 0 0 0 0 0 0 0 0
0 0 0 0 0 0 0 0 0 0 0 0 0 0 0 0 0 0 0 0 0 0 0 0 0 0 0 0 0 0 0 0 0 0 0 0 0 0 0 0 0 0 0
0 0 0 0 0 0 0 0 0 0 0 0 0 0 0 0 0 0 0 0 0 0 0 0 0 0 0 0 0 0 0 0 0 0 0 0 0 0 0 0 0 0 0
0 0 0 0 0 0 0 0 0 0 0 0 0 0 0 0 0 0 0 0 0 0 0 0 0 0 0 0 0 0 0 0 0 0 0 0 0 0 0 0 0 0 0
Wind_Speed
1 1 3 5 6 6 7 7 7 7 8 8 8 9 9 9 9 9 8 8 8 7 7 7 7 7 7 7 7 8 8 9 9 8 8 8 8 8 8 7 6 4 6
2 1 4 6 6 6 7 7 7 7 8 8 8 9 9 9 9 8 8 8 8 8 7 7 7 6 7 7 7 7 7 8 8 8 8 7 8 8 7 7 6 4 6
3 2 3 6 6 7 7 7 7 7 8 8 8 8 8 9 9 8 8 8 7 7 7 7 6 6 6 7 7 7 7 7 8 7 6 3 4 7 7 7 7 6 6
4 3 4 6 7 7 7 7 7 7 7 8 8 8 8 9 9 8 8 8 7 7 7 7 6 6 6 6 7 7 7 7 8 7 3 2 3 6 7 7 6 6 6
4 3 4 7 7 7 7 7 7 7 7 8 8 8 9 9 9 9 9 8 7 7 6 6 6 6 6 6 7 7 7 8 8 6 4 3 3 6 7 7 6 6 6
4 3 4 7 7 7 7 7 7 7 7 8 8 8 8 9 9 9 9 8 8 7 6 6 5 6 6 6 6 6 7 8 6 4 3 3 3 6 7 7 6 6 6
4 3 4 7 7 7 7 7 7 7 7 8 8 8 8 8 9 9 8 8 8 7 6 6 7 7 6 6 6 6 7 8 5 3 3 2 3 7 7 7 7 7 7
5 3 3 6 7 7 7 6 6 6 7 7 7 8 8 8 8 8 8 8 8 8 7 7 8 7 7 7 7 7 8 7 6 5 3 2 5 6 7 7 7 7 7
5 4 2 2 3 5 6 6 6 6 6 6 6 7 7 8 8 8 8 8 8 8 8 8 8 8 8 8 9 10 10 9 5 3 4 2 5 6 7 6 6 6 6
4 4 3 2 2 2 2 4 5 5 6 6 6 6 6 6 7 7 7 7 7 7 8 8 8 9 9 9 10 11 11 8 4 3 2 3 6 6 6 6 6 6 6
3 3 3 2 2 2 2 2 3 4 5 5 4 5 5 2 2 3 4 6 6 7 7 8 8 9 9 9 11 11 8 3 3 2 2 4 6 6 6 5 5 6 5
3 3 3 3 3 2 2 2 1 1 2 2 2 2 2 1 1 2 4 5 6 7 8 8 9 9 7 5 7 8 3 4 3 2 2 5 6 6 6 6 5 5 5
4 4 4 4 3 2 1 2 1 1 1 1 1 1 1 1 2 2 2 3 4 6 5 6 6 4 4 4 4 4 4 3 2 2 2 5 5 6 6 6 6 5 6
4 4 4 4 3 3 2 2 1 1 1 1 0 1 2 1 2 1 2 2 2 2 4 4 3 5 5 5 5 5 5 3 2 2 2 6 7 7 7 7 6 6 6
4 4 4 5 4 3 2 1 2 1 1 1 1 2 3 2 2 2 2 2 2 3 3 3 4 5 5 5 5 5 5 4 4 3 3 7 8 7 7 7 6 6 6
4 4 4 4 4 4 3 2 2 1 1 2 1 2 3 3 3 2 2 2 2 2 3 3 4 4 4 4 5 5 5 4 4 4 3 5 8 8 8 7 7 6 6
5 5 4 5 4 4 3 3 2 2 2 2 2 2 3 3 3 3 2 2 2 2 3 4 4 4 4 4 5 5 4 4 4 4 4 3 4 8 9 8 8 7 6
5 5 4 5 5 5 3 3 2 2 3 2 2 3 3 3 4 3 3 2 2 3 3 3 3 4 4 4 3 3 3 3 4 4 4 3 3 4 6 8 8 8 7
6 5 4 5 5 5 4 3 3 3 3 2 2 2 3 4 4 4 3 2 3 3 2 3 3 3 3 3 3 3 3 3 3 4 4 4 3 4 3 6 8 8 8
5 6 5 5 5 5 3 3 3 3 2 2 2 2 3 3 4 4 3 3 3 3 3 3 3 3 3 2 3 4 3 3 3 3 3 3 3 4 4 4 4 6 9
5 5 5 5 4 4 3 2 2 1 1 1 1 2 3 3 3 3 3 3 3 3 3 3 3 4 3 2 3 3 3 4 3 2 2 2 3 3 4 4 4 3 4
6 5 5 6 5 4 3 2 2 2 1 1 1 2 2 2 2 3 3 2 2 3 3 3 3 2 1 1 2 2 2 3 3 3 2 2 3 3 3 4 4 4 4
6 6 6 6 5 4 4 3 3 3 2 2 2 1 1 1 1 2 3 3 3 3 3 2 2 3 2 0 1 3 3 1 1 3 3 2 2 2 2 2 4 4 4
6 6 6 6 5 4 4 4 4 3 2 2 1 1 0 1 1 2 3 3 3 2 3 2 2 2 3 1 0 1 2 3 3 1 2 2 2 3 2 2 3 3 3
6 6 6 6 5 4 4 5 5 3 2 1 1 1 0 0 1 1 2 3 3 2 3 2 2 2 2 2 1 1 2 2 2 3 0 2 2 2 2 2 1 2 2
5 5 6 6 4 4 4 5 5 4 3 2 1 1 0 0 0 1 2 2 3 3 3 2 2 2 2 2 1 1 2 2 2 2 2 1 0 1 2 2 1 1 1
Wind_Direction
253 277 85 89 88 86 83 80 78 78 77 78 80 80 81 82 80 82 84 86 85 85 87 87 89 91 92 91 94 98 100 103 103 102 100 100 103 102 103 101 99 94 104
170 176 99 90 92 92 87 83 79 79 78 80 82 79 82 84 84 85 85 82 82 81 82 82 84 91 92 90 92 99 96 96 97 97 92 94 101 103 103 102 101 106 108
134 121 104 94 92 92 88 84 82 81 81 83 82 81 82 85 85 86 85 83 82 83 83 79 79 88 89 87 87 93 94 93 96 97 88 86 100 103 105 105 105 107 111
132 124 109 99 95 93 89 86 84 84 86 85 84 82 83 86 87 85 86 87 85 83 82 82 86 90 91 90 87 89 90 88 92 96 83 80 92 106 107 106 105 103 102
120 117 114 104 100 97 93 88 87 88 87 86 86 86 87 88 87 84 84 83 83 81 82 83 86 92 93 92 91 90 91 88 88 85 73 74 81 104 103 102 103 102 101
123 120 122 109 103 99 96 92 90 90 90 90 90 90 91 90 88 84 81 78 76 75 76 86 94 97 94 92 94 91 92 89 88 79 72 78 87 98 98 97 97 99 100
131 134 128 116 112 109 105 98 94 93 92 91 92 94 93 90 87 84 82 78 74 69 68 87 94 94 92 93 96 97 96 94 94 83 76 88 99 103 100 95 93 91 87
144 146 134 124 122 116 110 104 101 100 97 95 90 93 96 94 90 85 81 76 70 66 69 86 88 87 85 84 92 101 101 99 99 92 78 79 106 107 102 97 95 91 88
146 142 137 130 120 120 117 111 108 106 101 98 95 93 96 96 91 85 81 77 71 69 72 79 79 78 80 82 92 98 98 90 81 84 91 82 98 102 105 102 97 92 90
142 149 153 146 125 121 120 122 120 114 104 98 99 96 97 93 90 87 84 80 74 70 71 73 78 77 74 80 89 92 91 82 68 70 67 85 96 101 100 95 91 92 92
142 156 159 162 161 159 153 134 123 116 100 98 89 90 87 62 55 67 81 81 74 68 69 72 73 71 67 72 80 82 80 71 67 61 63 88 93 97 96 92 89 86 87
147 158 164 171 173 166 145 110 71 80 76 80 80 77 71 69 55 64 61 69 66 64 67 68 64 63 60 58 65 70 69 69 63 58 79 90 93 94 92 89 88 88 86
162 153 159 160 160 146 125 122 97 73 65 60 87 102 95 76 57 51 42 45 50 57 55 54 50 49 58 62 63 69 74 70 58 49 62 80 88 94 93 86 86 94 91
143 153 158 156 152 147 136 128 120 111 100 98 107 116 111 89 75 71 61 54 51 56 63 57 58 58 64 63 68 72 73 71 60 43 54 73 77 83 91 92 87 87 92
142 146 148 151 146 139 125 133 117 113 113 123 100 105 114 110 100 89 72 68 68 68 71 67 62 63 64 62 68 75 74 68 66 58 52 66 70 70 77 82 82 79 84
151 147 140 140 139 129 124 117 104 109 103 90 91 102 110 114 111 104 91 78 75 75 78 82 79 75 70 68 67 68 68 65 61 59 48 52 58 60 62 67 70 70 75
157 146 143 138 126 120 115 112 101 95 91 81 81 94 103 105 107 105 98 90 85 88 89 88 85 80 75 68 63 63 65 60 62 58 51 42 44 53 55 54 54 57 66
148 141 139 130 119 112 106 103 96 90 89 81 81 87 94 102 106 101 100 100 95 89 88 94 89 84 72 63 59 53 56 58 58 60 57 49 42 42 45 48 46 49 57
150 144 130 122 123 118 109 98 93 86 78 80 80 87 95 99 104 102 102 105 101 91 86 103 93 99 94 80 71 56 47 51 55 66 61 55 52 47 38 41 43 45 50
145 139 133 125 123 118 103 84 69 63 54 59 68 79 93 99 105 103 102 99 99 93 80 87 98 88 100 100 79 57 39 42 53 60 62 56 55 51 42 36 30 38 46
140 138 140 136 136 123 110 104 94 80 58 52 64 84 90 98 105 107 108 103 100 104 110 106 101 87 85 97 82 51 25 32 43 39 42 55 53 47 47 43 37 28 29
154 152 148 150 147 141 139 141 138 133 118 100 61 66 90 106 117 122 127 130 120 113 107 108 114 107 101 108 116 102 43 11 12 29 35 52 50 50 52 48 45 40 29
161 162 158 160 151 144 136 114 88 63 46 35 31 27 48 119 130 133 137 138 136 133 142 147 142 132 133 58 129 138 136 177 334 359 21 37 42 54 49 47 53 46 44
174 164 157 157 150 147 137 133 135 134 149 204 206 217 298 116 140 138 141 142 144 141 149 168 146 138 132 135 13 78 142 149 139 49 356 10 32 48 51 56 51 47 44
164 156 155 152 150 151 146 146 142 143 171 180 158 134 46 29 140 143 149 142 139 144 158 159 141 139 136 143 143 116 90 79 107 132 135 345 17 20 42 51 58 56 47
143 146 150 148 156 161 150 150 150 156 159 148 155 164 207 265 182 163 153 147 148 152 158 163 161 154 147 130 128 133 140 144 159 142 153 186 31 345 24 33 43 54 56